Weather History for Moncks Corner, SC

Change the Weather History Date:

Saturday, October 12, 2013

  Actual Average (KCHS) Record (KCHS)
Temperature  
Mean Temperature 72 °F 68 °F  
Max Temperature 82 °F 78 °F 87 °F (1954)
Min Temperature 62 °F 58 °F 40 °F (1945)
Degree Days  
Heating Degree Days 0 1  
Month to date heating degree days 12  
Since 1 July heating degree days 15  
Cooling Degree Days 7 5  
Month to date cooling degree days 70  
Year to date cooling degree days 2208  
Growing Degree Days 22 (Base 50)    
Moisture  
Dew Point 67 °F    
Average Humidity 87    
Maximum Humidity 100    
Minimum Humidity 58    
Precipitation  
Precipitation 0.00 in 0.12 in 2.10 in (1977)
Month to date precipitation 1.74  
Year to date precipitation 43.48  
Sea Level Pressure  
Sea Level Pressure 30.00 in    
Wind  
Wind Speed 1 mph (North)    
Max Wind Speed 6 mph    
Max Gust Speed -    
Visibility 9 miles    
Events      
T = Trace of Precipitation, MM = Missing Value Source: NWS Daily Summary

Daily Weather History Graph

Daily Weather History Graph

Search for Another Location

Airport:

Trip Planner

Search our weather history database for the weather conditions in past years. The results will help you decide how hot, cold, wet, or windy it might be!

Date:

Astronomy

Oct. 12, 2013 Rise Set
Actual Time 7:22 AM EDT 6:50 PM EDT
Civil Twilight 6:57 AM EDT 7:14 PM EDT
Nautical Twilight 6:28 AM EDT 7:43 PM EDT
Astronomical Twilight 6:00 AM EDT 8:12 PM EDT
Moon 2:41 PM EDT (10/12) 12:43 AM EDT (10/12)
Length of Visible Light 12h 17m
Length of Day
11h 27m
First Quarter, 58% of the Moon is Illuminated
Oct 12
First Quarter
Oct 18
Full
Oct 26
Last Quarter
Nov 3
New
Nov 10
First Quarter

Hourly Weather History & Observations

Time (EDT) Temp. Heat Index Dew Point Humidity Pressure Visibility Wind Dir Wind Speed Gust Speed Precip Events Conditions
12:15 AM 68.0 °F - 66.2 °F 94% 29.96 in 10.0 mi Calm Calm - N/A   Overcast
12:35 AM 68.0 °F - 66.2 °F 94% 29.96 in 10.0 mi Calm Calm - N/A   Mostly Cloudy
12:55 AM 66.2 °F - 64.4 °F 94% 29.96 in 10.0 mi Calm Calm - N/A   Scattered Clouds
1:15 AM 64.4 °F - 64.4 °F 100% 29.96 in 10.0 mi Calm Calm - N/A   Scattered Clouds
1:35 AM 64.4 °F - 64.4 °F 100% 29.96 in 7.0 mi Calm Calm - N/A   Mostly Cloudy
1:55 AM 64.4 °F - 64.4 °F 100% 29.95 in 10.0 mi Calm Calm - N/A   Overcast
2:15 AM 64.4 °F - 64.4 °F 100% 29.95 in 10.0 mi Calm Calm - N/A   Overcast
2:35 AM 64.4 °F - 64.4 °F 100% 29.95 in 7.0 mi Calm Calm - N/A   Mostly Cloudy
2:55 AM 64.4 °F - 64.4 °F 100% 29.95 in 7.0 mi Calm Calm - N/A   Scattered Clouds
3:15 AM 64.4 °F - 64.4 °F 100% 29.95 in 7.0 mi Calm Calm - N/A   Mostly Cloudy
3:35 AM 64.4 °F - 64.4 °F 100% 29.94 in 7.0 mi Calm Calm - N/A   Mostly Cloudy
3:55 AM 64.4 °F - 64.4 °F 100% 29.95 in 7.0 mi Calm Calm - N/A   Mostly Cloudy
4:15 AM 64.4 °F - 64.4 °F 100% 29.95 in 10.0 mi Calm Calm - N/A   Mostly Cloudy
4:35 AM 64.4 °F - 64.4 °F 100% 29.95 in 5.0 mi Calm Calm - N/A   Scattered Clouds
4:55 AM 62.6 °F - 62.6 °F 100% 29.95 in 7.0 mi Calm Calm - N/A   Clear
5:15 AM 62.6 °F - 62.6 °F 100% 29.96 in 7.0 mi Calm Calm - N/A   Clear
5:35 AM 66.2 °F - 66.2 °F 100% 29.96 in 7.0 mi NE 4.6 mph - N/A   Clear
5:55 AM 64.4 °F - 64.4 °F 100% 29.97 in 10.0 mi Calm Calm - N/A   Scattered Clouds
6:15 AM 64.4 °F - 64.4 °F 100% 29.97 in 10.0 mi Calm Calm - N/A   Scattered Clouds
6:35 AM 64.4 °F - 64.4 °F 100% 29.98 in 7.0 mi Calm Calm - N/A   Mostly Cloudy
6:55 AM 64.4 °F - 64.4 °F 100% 29.98 in 10.0 mi Calm Calm - N/A   Overcast
7:35 AM 64.4 °F - 64.4 °F 100% 30.00 in 10.0 mi Calm Calm - N/A   Overcast
7:55 AM 64.4 °F - 64.4 °F 100% 30.00 in 4.0 mi Calm Calm - N/A   Overcast
8:15 AM 66.2 °F - 64.4 °F 94% 30.01 in 7.0 mi Calm Calm - N/A   Overcast
8:35 AM 66.2 °F - 64.4 °F 94% 30.02 in 10.0 mi Calm Calm - N/A   Overcast
8:55 AM 68.0 °F - 66.2 °F 94% 30.03 in 10.0 mi Calm Calm - N/A   Overcast
9:15 AM 68.0 °F - 66.2 °F 94% 30.03 in 10.0 mi Calm Calm - N/A   Overcast
9:35 AM 69.8 °F - 66.2 °F 88% 30.03 in 7.0 mi Calm Calm - N/A   Scattered Clouds
9:55 AM 71.6 °F - 66.2 °F 83% 30.03 in 10.0 mi ENE 3.5 mph - N/A   Clear
10:15 AM 73.4 °F - 66.2 °F 78% 30.03 in 10.0 mi Calm Calm - N/A   Clear
10:35 AM 75.2 °F - 66.2 °F 73% 30.03 in 10.0 mi ENE 5.8 mph - N/A   Clear
10:55 AM 75.2 °F - 66.2 °F 73% 30.03 in 10.0 mi Calm Calm - N/A   Clear
11:15 AM 77.0 °F - 68.0 °F 74% 30.03 in 7.0 mi Calm Calm - N/A   Clear
11:35 AM 77.0 °F - 68.0 °F 74% 30.03 in 10.0 mi North 4.6 mph - N/A   Scattered Clouds
11:55 AM 77.0 °F - 68.0 °F 74% 30.03 in 10.0 mi NNE 5.8 mph - N/A   Clear
12:15 PM 78.8 °F - 68.0 °F 69% 30.03 in 7.0 mi NNW 4.6 mph - N/A   Clear
12:35 PM 78.8 °F - 68.0 °F 69% 30.03 in 10.0 mi NNW 3.5 mph - N/A   Clear
12:55 PM 78.8 °F - 68.0 °F 69% 30.02 in 10.0 mi NNW 4.6 mph - N/A   Clear
1:15 PM 78.8 °F - 68.0 °F 69% 30.02 in 7.0 mi NW 4.6 mph - N/A   Scattered Clouds
1:35 PM 78.8 °F - 66.2 °F 65% 30.01 in 10.0 mi NNW 4.6 mph - N/A   Scattered Clouds
1:55 PM 80.6 °F 83.2 °F 68.0 °F 65% 30.00 in 10.0 mi North 3.5 mph - N/A   Mostly Cloudy
2:15 PM 80.6 °F 82.7 °F 66.2 °F 61% 30.00 in 10.0 mi NNE 3.5 mph - N/A   Scattered Clouds
2:35 PM 80.6 °F 82.7 °F 66.2 °F 61% 29.99 in 10.0 mi Calm Calm - N/A   Clear
2:55 PM 80.6 °F 82.7 °F 66.2 °F 61% 29.98 in 10.0 mi WNW 3.5 mph - N/A   Clear
3:15 PM 82.4 °F 84.6 °F 66.2 °F 58% 29.98 in 10.0 mi NNW 3.5 mph - N/A   Clear
3:35 PM 82.4 °F 84.6 °F 66.2 °F 58% 29.98 in 10.0 mi North 5.8 mph - N/A   Clear
3:55 PM 78.8 °F - 66.2 °F 65% 29.99 in 10.0 mi Calm Calm - N/A   Scattered Clouds
4:15 PM 78.8 °F - 66.2 °F 65% 29.99 in 10.0 mi Calm Calm - N/A   Mostly Cloudy
4:35 PM 78.8 °F - 66.2 °F 65% 29.98 in 10.0 mi Calm Calm - N/A   Mostly Cloudy
4:55 PM 78.8 °F - 66.2 °F 65% 29.98 in 10.0 mi NNE 3.5 mph - N/A   Clear
5:15 PM 77.0 °F - 68.0 °F 74% 29.99 in 10.0 mi Calm Calm - N/A   Clear
5:35 PM 75.2 °F - 69.8 °F 83% 29.99 in 10.0 mi Calm Calm - N/A   Clear
5:55 PM 73.4 °F - 71.6 °F 94% 30.00 in 10.0 mi Calm Calm - N/A   Scattered Clouds
6:15 PM 73.4 °F - 69.8 °F 88% 30.00 in 10.0 mi Calm Calm - N/A   Overcast
6:35 PM 73.4 °F - 69.8 °F 88% 30.01 in 7.0 mi Calm Calm - N/A   Overcast
6:55 PM 73.4 °F - 69.8 °F 88% 30.01 in 10.0 mi Calm Calm - N/A   Overcast
7:15 PM 71.6 °F - 69.8 °F 94% 30.02 in 10.0 mi Calm Calm - N/A   Overcast
7:35 PM 71.6 °F - 69.8 °F 94% 30.02 in 10.0 mi Calm Calm - N/A   Overcast
7:55 PM 71.6 °F - 69.8 °F 94% 30.02 in 10.0 mi Calm Calm - N/A   Overcast
8:15 PM 71.6 °F - 69.8 °F 94% 30.03 in 10.0 mi Calm Calm - N/A   Overcast
8:35 PM 71.6 °F - 69.8 °F 94% 30.03 in 10.0 mi Calm Calm - N/A   Overcast
8:55 PM 71.6 °F - 69.8 °F 94% 30.03 in 10.0 mi Calm Calm - N/A   Overcast
9:15 PM 71.6 °F - 69.8 °F 94% 30.03 in 10.0 mi Calm Calm - N/A   Overcast
9:35 PM 71.6 °F - 69.8 °F 94% 30.04 in 10.0 mi Calm Calm - N/A   Overcast
9:55 PM 73.4 °F - 69.8 °F 88% 30.05 in 10.0 mi Calm Calm - N/A   Overcast
10:15 PM 71.6 °F - 69.8 °F 94% 30.05 in 10.0 mi Calm Calm - N/A   Overcast
10:35 PM 71.6 °F - 69.8 °F 94% 30.05 in 10.0 mi Calm Calm - N/A   Overcast
10:55 PM 71.6 °F - 69.8 °F 94% 30.05 in 10.0 mi Calm Calm - N/A   Overcast
11:15 PM 69.8 °F - 69.8 °F 100% 30.05 in 10.0 mi Calm Calm - N/A   Overcast
11:35 PM 71.6 °F - 68.0 °F 88% 30.05 in 10.0 mi NE 3.5 mph - N/A   Overcast
11:55 PM 71.6 °F - 68.0 °F 88% 30.05 in 10.0 mi ENE 4.6 mph - N/A   Overcast